Location: Unspecified
(40.7945°N, 0.0000°E)
Time: 10:50:53
(UTC+00:00)

UWE-3 - Pass Details

Date: 23 August 2020
Orbit: 585 x 683 km, 97.6° (Epoch: 22 September)

Event Time Altitude Azimuth Distance (km) Brightness Sun altitude
Rises 03:50:54 0° 33° (NNE) 2,831 ? -16.0°
Reaches altitude 10° 03:53:59 10° 58° (ENE) 1,936 ? -15.5°
Maximum altitude 03:56:17 14° 92° (E) 1,673 ? -15.1°
Drops below altitude 10° 03:58:36 10° 125° (SE) 1,951 ? -14.7°
Sets 04:01:44 0° 150° (SSE) 2,870 ? -14.2°
